DateTimeUTC,F1_A11,F1_S11,BsB_S11,BsG_S11,BsR_S11,BbsB_S11,BbsG_S11,BbsR_S11,BaB_A11,BaG_A11,BaR_A11,Tu_S11,T_S11,Uu_S11,U_S11,P_S11,T1_A11
2021-08-07T22:00:00Z,00000200,20000000,,,,,,,0000.28,0000.03,0000.30,18.8,25.7,04.3,02.8,0665.8,31.1
2021-08-07T22:01:00Z,00000200,20000000,,,,,,,0000.19,0000.25,-000.18,18.8,25.7,04.3,02.8,0665.8,31.1
2021-08-07T22:02:00Z,00000200,20000000,,,,,,,-000.06,0000.40,0000.13,18.8,25.7,04.3,02.8,0665.8,31.1
2021-08-07T22:03:00Z,00000200,60000000,,,,,,,0000.65,0000.61,0000.57,18.8,25.7,04.3,02.8,0665.8,31.1
2021-08-07T22:04:00Z,00000200,40000000,0001.49,0001.42,0001.18,0000.52,0000.38,-000.01,0000.68,0000.36,0000.60,18.8,25.5,04.6,03.0,0666.7,31.1
2021-08-07T22:05:00Z,00000200,00000000,0002.99,0001.66,0001.05,0000.37,0000.48,0000.21,0000.57,0000.44,0000.46,18.9,25.4,04.8,03.2,0666.8,31.1
2021-08-07T22:06:00Z,00000200,00000000,0002.42,0001.78,0001.14,0000.73,0000.20,0000.02,0000.48,0000.51,0000.28,18.9,25.4,04.8,03.2,0666.7,31.1
2021-08-07T22:07:00Z,00000200,00000000,0001.60,0001.54,0001.10,0000.49,0000.26,0000.08,0000.64,0000.54,0000.72,18.9,25.4,04.8,03.2,0666.8,31.1
2021-08-07T22:08:00Z,00000200,00000000,0002.34,0001.94,0000.86,0000.10,0000.28,-000.09,0000.31,0000.59,0000.53,18.8,25.4,04.9,03.3,0666.7,31.1
2021-08-07T22:09:00Z,00000200,00000000,0002.68,0001.83,0001.20,0000.83,0000.31,0000.34,0001.23,0000.71,0000.20,18.8,25.3,04.9,03.3,0666.8,31.1
2021-08-07T22:10:00Z,00000200,00000000,0002.37,0001.91,0001.48,0000.15,0000.24,0000.14,0000.06,0000.42,0000.08,18.8,25.4,04.9,03.3,0666.8,31.0
2021-08-07T22:11:00Z,00000200,00000000,0002.61,0001.71,0001.61,0000.81,0000.18,0000.56,0000.94,0000.45,0000.54,18.8,25.3,05.0,03.3,0666.7,31.0
2021-08-07T22:12:00Z,00000200,00000000,0002.44,0001.65,0001.39,0000.58,0000.41,0000.12,0000.52,0000.92,0000.38,18.8,25.3,05.0,03.4,0666.7,31.0
2021-08-07T22:13:00Z,00000200,00000000,0003.41,0001.55,0000.60,0000.34,0000.18,0000.15,-000.03,0000.15,0000.51,18.8,25.3,05.0,03.4,0666.7,31.0
2021-08-07T22:14:00Z,00000200,00000000,0002.48,0001.67,0001.32,0000.84,0000.36,0000.23,0001.00,0000.25,0000.52,18.8,25.3,05.0,03.4,0666.7,31.1
2021-08-07T22:15:00Z,00000200,00000000,0002.16,0001.89,0000.74,0000.99,0000.17,0000.18,0000.69,0000.56,0000.28,18.8,25.3,05.0,03.3,0666.7,31.0
2021-08-07T22:16:00Z,00000200,00000000,0002.16,0001.43,0001.18,-000.16,0000.16,0000.13,0000.50,0000.55,0000.45,18.8,25.3,05.1,03.4,0666.7,31.1
2021-08-07T22:17:00Z,00000200,00000000,0002.95,0001.93,0001.28,0000.60,0000.42,0000.05,0000.53,0000.42,0000.52,18.8,25.3,05.1,03.4,0666.7,31.0
2021-08-07T22:18:00Z,00000200,00000000,0002.19,0001.68,0001.67,0000.70,0000.24,0000.36,0000.28,0000.70,0000.36,18.8,25.3,05.1,03.4,0666.7,31.0
2021-08-07T22:19:00Z,00000200,00000000,0002.23,0001.61,0001.06,0000.27,0000.27,-000.04,0000.55,0000.25,0000.36,18.8,25.2,05.0,03.4,0666.7,31.1
2021-08-07T22:20:00Z,00000200,00000000,0002.41,0001.60,0000.85,0000.35,0000.22,0000.03,0000.69,0000.85,0000.69,18.8,25.2,05.2,03.5,0666.7,31.1
2021-08-07T22:21:00Z,00000200,00000000,0002.29,0001.80,0001.08,0000.24,0000.21,0000.08,0000.32,0000.54,0000.01,18.8,25.2,05.2,03.5,0666.7,31.1
2021-08-07T22:22:00Z,00000200,00000000,0002.63,0001.89,0000.91,0000.39,-000.05,-000.15,0000.66,0000.40,0000.74,18.7,25.2,05.2,03.5,0666.7,31.1
2021-08-07T22:23:00Z,00000200,00000000,0002.01,0001.66,0000.96,-000.11,0000.46,0000.06,0000.95,0000.86,0000.24,18.7,25.2,05.2,03.5,0666.7,31.1
2021-08-07T22:24:00Z,00000200,00000000,0003.12,0001.78,0001.36,0000.29,0000.32,0000.40,0000.26,0000.33,0000.58,18.8,25.2,05.2,03.5,0666.7,31.0
2021-08-07T22:25:00Z,00000200,00000000,0002.06,0001.36,0001.34,-000.08,0000.08,0000.28,0000.59,0000.70,0000.70,18.9,25.3,05.3,03.6,0666.7,31.1
2021-08-07T22:26:00Z,00000200,00000000,0003.03,0001.75,0001.03,0000.42,0000.11,0000.33,0001.00,0000.57,0000.32,18.9,25.3,05.3,03.6,0666.7,31.1
2021-08-07T22:27:00Z,00000200,00000000,0002.37,0001.90,0001.53,0000.94,0000.19,0000.19,0000.01,0000.33,0000.21,18.9,25.3,05.4,03.6,0666.8,31.1
2021-08-07T22:28:00Z,00000200,00000000,0002.30,0001.63,0001.43,0000.54,0000.33,0000.37,0000.72,0000.26,0000.53,18.9,25.3,05.3,03.6,0666.7,31.1
2021-08-07T22:29:00Z,00000200,00000000,0002.18,0002.10,0001.19,0000.31,0000.20,0000.68,0000.95,0000.89,0000.55,18.9,25.3,05.3,03.6,0666.7,31.1
2021-08-07T22:30:00Z,00000200,00000000,0002.68,0001.70,0001.06,0000.44,0000.29,0000.11,0000.29,0000.51,0000.38,18.9,25.3,05.4,03.6,0666.7,31.1
2021-08-07T22:31:00Z,00000200,00000000,0002.59,0001.84,0001.34,0000.01,0000.06,0000.18,0000.60,0000.53,0000.70,18.9,25.3,05.5,03.7,0666.7,31.1
2021-08-07T22:32:00Z,00000200,00000000,0002.33,0001.86,0001.22,0000.66,0000.14,0000.20,0000.82,0000.50,0000.07,18.9,25.3,05.5,03.7,0666.7,31.1
2021-08-07T22:33:00Z,00000200,00000000,0002.80,0001.75,0001.59,0000.46,0000.19,0000.19,0000.57,0000.39,0000.67,18.9,25.3,05.5,03.7,0666.7,31.1
2021-08-07T22:34:00Z,00000200,00000000,0002.50,0001.77,0001.19,-000.08,0000.07,0000.31,0000.40,0000.81,0000.29,18.9,25.3,05.6,03.8,0666.7,31.0
2021-08-07T22:35:00Z,00000200,00000000,0002.10,0001.61,0001.19,0000.83,0000.05,0000.15,0000.54,0000.55,0000.74,18.9,25.3,05.8,03.9,0666.7,31.0
2021-08-07T22:36:00Z,00000200,00000000,0001.92,0001.53,0001.28,0000.19,0000.41,0000.06,0000.80,0000.65,0000.22,18.9,25.2,05.7,03.8,0666.7,31.1
2021-08-07T22:37:00Z,00000200,00000000,0002.07,0001.78,0001.10,0000.32,0000.26,-000.08,0000.58,0000.31,0000.40,18.9,25.2,05.8,03.9,0666.8,31.0
2021-08-07T22:38:00Z,00000200,00000000,0002.16,0001.88,0001.07,0000.12,0000.39,0000.25,0000.39,0000.55,0000.47,18.9,25.3,05.8,03.9,0666.8,31.1
2021-08-07T22:39:00Z,00000200,00000000,0002.20,0002.00,0001.32,0000.83,0000.41,0000.33,0000.46,0000.31,0000.03,18.9,25.3,05.8,03.9,0666.7,31.1
2021-08-07T22:40:00Z,00000200,00000000,0003.26,0001.69,0001.26,0000.67,0000.45,-000.11,0000.65,0000.84,0000.74,18.9,25.3,05.7,03.9,0666.7,31.1
2021-08-07T22:41:00Z,00000200,00000000,0002.66,0002.09,0001.30,0000.53,0000.35,0000.40,0000.43,0000.48,0000.76,18.9,25.3,05.8,03.9,0666.7,31.1
2021-08-07T22:42:00Z,00000200,00000000,0002.64,0001.93,0001.10,0000.22,0000.87,0000.19,0000.64,0000.40,0000.28,18.9,25.3,05.9,04.0,0666.7,31.1
2021-08-07T22:43:00Z,00000200,00000000,0002.86,0001.63,0001.13,0000.49,0000.35,0000.14,0000.10,0000.34,0000.34,18.9,25.3,05.8,04.0,0666.7,31.1
2021-08-07T22:44:00Z,00000200,00000000,0002.37,0001.70,0000.82,0000.25,0000.39,0000.10,0001.07,0000.53,0000.19,18.9,25.3,05.9,04.0,0666.7,31.1
2021-08-07T22:45:00Z,00000200,00000000,0002.69,0001.73,0001.59,0000.34,0000.14,0000.27,0000.11,0000.71,0000.68,18.9,25.3,05.9,04.0,0666.8,31.1
2021-08-07T22:46:00Z,00000200,00000000,0002.53,0001.76,0001.46,0000.80,0000.59,0000.45,0000.98,0000.74,0000.66,18.9,25.2,05.9,04.0,0666.8,31.1
2021-08-07T22:47:00Z,00000200,00000000,0002.54,0001.63,0001.24,0000.28,0000.43,0000.14,0000.28,0000.25,-000.19,18.9,25.2,06.0,04.1,0666.8,31.0
2021-08-07T22:48:00Z,00000200,00000000,0002.38,0001.92,0001.13,0000.52,0000.13,-000.08,0000.59,0000.39,0000.52,18.9,25.2,06.1,04.2,0666.8,31.1
2021-08-07T22:49:00Z,00000200,00000000,0002.08,0001.58,0001.25,0000.29,0000.68,0000.02,0000.74,0000.94,0000.77,18.9,25.2,06.0,04.1,0666.8,31.0
2021-08-07T22:50:00Z,00000200,00000000,0002.80,0002.00,0001.00,-000.05,0000.27,-000.02,0000.16,0000.06,0000.14,18.9,25.2,06.2,04.2,0666.8,31.0
2021-08-07T22:51:00Z,00000200,00000000,0002.24,0001.54,0001.15,0000.09,0000.39,0000.06,0000.58,0000.15,0000.39,18.8,25.2,06.0,04.1,0666.8,31.0
2021-08-07T22:52:00Z,00000200,00000000,0002.44,0001.83,0001.23,0000.55,0000.16,0000.01,0000.60,0000.73,0000.41,18.8,25.2,06.1,04.2,0666.8,31.0
2021-08-07T22:53:00Z,00000200,00000000,0002.37,0002.02,0001.21,0000.28,0000.00,0000.28,0000.19,0000.55,0000.36,18.8,25.2,06.1,04.1,0666.8,31.0
2021-08-07T22:54:00Z,00000200,00000000,0002.54,0001.54,0000.94,0000.49,0000.45,0000.26,0000.81,0000.70,0000.55,18.8,25.2,06.1,04.2,0666.8,31.0
2021-08-07T22:55:00Z,00000200,00000000,0002.13,0001.74,0001.05,0000.16,0000.28,0000.34,0000.41,0000.12,0000.34,18.8,25.2,06.2,04.2,0666.7,31.0
2021-08-07T22:56:00Z,00000200,00000000,0001.55,0001.61,0001.15,0000.11,0000.39,0000.22,0000.42,0000.54,0000.26,18.8,25.2,06.2,04.2,0666.8,31.0
2021-08-07T22:57:00Z,00000200,40000000,,,,,,,-000.14,-000.34,-000.34,18.8,25.2,06.1,04.1,0666.7,31.0
2021-08-07T22:58:00Z,00000200,60000000,,,,,,,0000.18,0000.11,-000.15,18.5,25.3,06.0,03.9,0665.9,31.0
2021-08-07T22:59:00Z,00000200,20000000,,,,,,,-000.54,-000.28,0000.21,18.5,25.4,05.9,03.9,0665.8,31.0
